Content
SEND FEEDBACK

Daily
Averages
Monthly
Summary
Mexico

SAN MARTINIANO, QUINTANA ROO


Home > North America > Mexico > Quintana Roo
Elevation: 49 feet     Latitude: 20 47N     Longitude: 087 16W

WEATHER
 
SELECT A DAY
Number of Records: 196,008;   Date Range: 2/21/06 - 7/7/14
 
SHARE

PRINT THIS DATA

[ ← Previous Day ]
WEATHER ALMANAC - FEBRUARY 3, 2014
[ Next Day → ]
[ °C ]   °F
Weather ElementAverageHighLow
Temperature72.6 °F86 °F (1:55 pm)62.6 °F (4:15 am)
Dewpoint27.5 °F69.8 °F (7:55 pm) (7:00 pm)
Humidity58.7 %94 % (7:55 pm)40 % (1:55 pm)
Barometer30.10 in30.15 in (9:35 am)30.05 in (2:55 pm)
Wind Speed3.8 mph11.5 mph (3:15 pm)
Wind Gust17.3 mph (4:15 pm)
Weather ElementAverage
Visibility7.7 mi
Wind DirectionESE (128.1 °)

Weather ElementTotal
Precipitation---
Cooling Degree Days9.3 (Base 65)
Growing Degree Days24.3 (Base 50)
Averaged from 70 records on February 3, 2014
WEATHER CONDITIONS BREAKOUT
WIND DIRECTION BREAKOUT
WEATHER BY HOUR - FEBRUARY 3, 2014
[ °C ]   °F
Local TimeTemperatureDewpointHumidityBarometerVisibilityWind DirectionWind SpeedGust SpeedPrecipitationEventsConditions
12:55 AM64.4 °F0.0 °F30.09 in7.0 miCalmMostly Cloudy
1:15 AM64.4 °F0.0 °F30.09 in10.0 miCalmMostly Cloudy
1:35 AM64.4 °F0.0 °F30.09 in7.0 miCalmMostly Cloudy
1:55 AM66.2 °F0.0 °F30.09 in10.0 miCalmScattered Clouds
2:15 AM64.4 °F0.0 °F30.09 in10.0 miCalmMostly Cloudy
2:35 AM66.2 °F0.0 °F30.09 in10.0 miCalmOvercast
2:55 AM66.2 °F0.0 °F30.08 in10.0 miCalmScattered Clouds
3:15 AM66.2 °F0.0 °F30.09 in10.0 miCalmScattered Clouds
3:35 AM64.4 °F0.0 °F30.09 in10.0 miCalmClear
3:55 AM64.4 °F0.0 °F30.09 in5.0 miCalmHaze
4:15 AM62.6 °F0.0 °F30.09 in4.0 miCalmHaze
4:35 AM62.6 °F0.0 °F30.09 in3.0 miCalmMist
4:55 AM62.6 °F0.0 °F30.09 in7.0 miCalmOvercast
5:15 AM62.6 °F0.0 °F30.09 in7.0 miCalmOvercast
5:35 AM62.6 °F0.0 °F30.10 in7.0 miCalmOvercast
5:55 AM64.4 °F0.0 °F30.10 in7.0 miCalmOvercast
6:15 AM64.4 °F0.0 °F30.10 in3.0 miCalmOvercast
6:35 AM64.4 °F0.0 °F30.10 in7.0 miCalmOvercast
6:55 AM62.6 °F0.0 °F30.11 in5.0 miENE (70°)3.5 mphHaze
7:15 AM64.4 °F0.0 °F30.11 in4.0 miCalmHaze
7:35 AM64.4 °F0.0 °F30.11 in3.0 miEast (100°)3.5 mphOvercast
7:55 AM64.4 °F0.0 °F30.12 in1.0 miCalmOvercast
8:15 AM66.2 °F0.0 °F30.12 in0.2 miCalmFogFog
8:35 AM68.0 °F0.0 °F30.13 in0.2 miSE (140°)3.5 mphFogFog
8:55 AM69.8 °F0.0 °F30.14 in2.0 miSSE (150°)3.5 mphOvercast
9:15 AM71.6 °F0.0 °F30.14 in5.0 miSSE (160°)5.8 mphHaze
9:35 AM73.4 °F0.0 °F30.15 in7.0 miSouth (180°)8.1 mphMostly Cloudy
9:55 AM75.2 °F0.0 °F30.15 in10.0 miSouth (180°)6.9 mphMostly Cloudy
10:15 AM77.0 °F0.0 °F30.15 in10.0 miSSW (200°)6.9 mphScattered Clouds
10:35 AM78.8 °F68.0 °F69 %30.15 in10.0 miSouth (190°)8.1 mphScattered Clouds
10:55 AM78.8 °F68.0 °F69 %30.15 in10.0 miSW (220°)6.9 mphMostly Cloudy
11:15 AM78.8 °F68.0 °F69 %30.14 in10.0 miSSW (210°)5.8 mphMostly Cloudy
11:35 AM82.4 °F66.2 °F58 %30.14 in10.0 miSSW (200°)6.9 mphScattered Clouds
11:55 AM80.6 °F66.2 °F61 %30.13 in10.0 miSSW (210°)9.2 mphScattered Clouds
12:15 PM82.4 °F64.4 °F54 %30.12 in10.0 miSW (230°)6.9 mphMostly Cloudy
12:35 PM84.2 °F64.4 °F51 %30.11 in10.0 miSSW (210°)3.5 mphScattered Clouds
12:55 PM82.4 °F64.4 °F54 %30.10 in10.0 miWSW (240°)8.1 mphScattered Clouds
1:15 PM82.4 °F60.8 °F48 %30.09 in10.0 miWSW (240°)5.8 mphClear
1:35 PM84.2 °F62.6 °F48 %30.07 in10.0 miSW (230°)6.9 mphClear
1:55 PM86.0 °F59.0 °F40 %30.07 in10.0 miSW (230°)8.1 mphClear
2:15 PM84.2 °F60.8 °F45 %30.06 in10.0 miWest (270°)9.2 mphScattered Clouds
2:35 PM84.2 °F60.8 °F45 %30.06 in10.0 miWest (260°)10.4 mphScattered Clouds
2:55 PM84.2 °F62.6 °F48 %30.05 in10.0 miWSW (240°)8.1 mphClear
3:15 PM84.2 °F60.8 °F45 %30.05 in10.0 miWest (270°)11.5 mphClear
3:35 PM84.2 °F62.6 °F48 %30.05 in10.0 miWSW (240°)11.5 mph16.1 mphScattered Clouds
3:55 PM84.2 °F62.6 °F48 %30.05 in10.0 miWest (260°)10.4 mphScattered Clouds
4:15 PM84.2 °F62.6 °F48 %30.06 in10.0 miWSW (250°)10.4 mph17.3 mphClear
4:35 PM82.4 °F62.6 °F51 %30.05 in10.0 miWest (280°)8.1 mphClear
4:55 PM82.4 °F62.6 °F51 %30.06 in10.0 miWest (270°)10.4 mphClear
5:15 PM80.6 °F62.6 °F54 %30.07 in10.0 miWest (270°)5.8 mphClear
5:35 PM80.6 °F62.6 °F54 %30.07 in10.0 miWest (260°)8.1 mphClear
5:55 PM78.8 °F62.6 °F57 %30.07 in10.0 miWest (280°)6.9 mphClear
6:15 PM77.0 °F64.4 °F65 %30.07 in10.0 miWest (280°)5.8 mphClear
6:35 PM77.0 °F64.4 °F65 %30.08 in10.0 miWest (270°)5.8 mphClear
6:55 PM73.4 °F64.4 °F73 %30.08 in10.0 miWSW (250°)4.6 mphClear
7:15 PM73.4 °F66.2 °F78 %30.08 in10.0 miWest (260°)4.6 mphClear
7:35 PM73.4 °F66.2 °F78 %30.09 in10.0 miWSW (240°)3.5 mphClear
7:55 PM71.6 °F69.8 °F94 %30.09 in10.0 miSW (220°)4.6 mphClear
8:15 PM71.6 °F69.8 °F94 %30.09 in10.0 miCalmClear
8:35 PM71.6 °F0.0 °F30.10 in10.0 miCalmClear
8:55 PM69.8 °F0.0 °F30.10 in10.0 miCalmClear
9:15 PM69.8 °F0.0 °F30.11 in10.0 miCalmClear
9:35 PM68.0 °F0.0 °F30.12 in5.0 miCalmHaze
9:55 PM68.0 °F0.0 °F30.12 in7.0 miCalmClear
10:15 PM68.0 °F0.0 °F30.12 in2.0 miCalmClear
10:35 PM68.0 °F0.0 °F30.12 in7.0 miNorth (350°)3.5 mphClear
10:55 PM68.0 °F0.0 °F30.12 in4.0 miNorth (360°)3.5 mphHaze
11:15 PM68.0 °F0.0 °F30.12 in0.2 miCalmFogFog
11:35 PM68.0 °F0.0 °F30.12 in0.2 miCalmFogFog
11:55 PM68.0 °F0.0 °F30.12 in0.2 miCalmFogFog
Hourly data recorded from KPCM, located miles away from San Martiniano, Quintana Roo







STORIES FROM OUR PARTNERS